Topeka, KS

6:28 PM CDT on October 22, 2017 (GMT -0500)
Billard Municipal

Weather History for KTOP - July, 2013

Change the Weather History Date:

Wednesday, July 17, 2013

  Actual Average Record
Temperature  
Mean Temperature 83 °F 79 °F  
Max Temperature 95 °F 90 °F 108 °F (1936)
Min Temperature 71 °F 69 °F 57 °F (1967)
Degree Days  
Heating Degree Days 0 0  
Month to date heating degree days 0 0  
Since 1 June heating degree days 5 8  
Since 1 July heating degree days 0 0  
Cooling Degree Days 18 14  
Month to date cooling degree days 257 233  
Year to date cooling degree days 739 643  
Since 1 June cooling degree days 594 517  
Growing Degree Days 33 (Base 50)    
Moisture  
Dew Point 67 °F    
Average Humidity 60    
Maximum Humidity 84    
Minimum Humidity 36    
Precipitation  
Precipitation 0.00 in 0.12 in 1.62 in (1950)
Month to date precipitation 0.07 2.23  
Year to date precipitation 17.55 20.74  
Snow  
Snow 0.00 in 0.00 in 0.00 in ()
Month to date snowfall 0.0 0.0  
Year to date snowfall 24.2 11.3  
Since 1 July snowfall 0.0 0.0  
Snow Depth 0.00 in    
Sea Level Pressure  
Sea Level Pressure 30.24 in    
Wind  
Wind Speed 4 mph (SSE)    
Max Wind Speed 15 mph    
Max Gust Speed 20 mph    
Visibility 10 miles    
Events      
T = Trace of Precipitation, MM = Missing Value Source: NWS Daily Summary

Daily Weather History Graph

Daily Weather History Graph

Search for Another Location

Airport or City:

Trip Planner

Search our weather history database for the weather conditions in past years. The results will help you decide how hot, cold, wet, or windy it might be!

Date:

Astronomy

Jul. 17, 2013 Rise Set
Actual Time 6:10 AM CDT 8:46 PM CDT
Civil Twilight 5:39 AM CDT 9:17 PM CDT
Nautical Twilight 5:00 AM CDT 9:55 PM CDT
Astronomical Twilight 4:17 AM CDT 10:38 PM CDT
Moon 3:37 PM CDT (7/17) 1:17 AM CDT (7/17)
Length of Visible Light 15h 37m
Length of Day
14h 35m
Waxing Gibbous, 67% of the Moon is Illuminated
Jul 17
Waxing Gibbous
Jul 22
Full
Jul 29
Last Quarter
Aug 6
New
Aug 14
First Quarter

Hourly Weather History & Observations

Time (CDT) Temp. Heat Index Dew Point Humidity Pressure Visibility Wind Dir Wind Speed Gust Speed Precip Events Conditions
12:53 AM 75.9 °F - 68.0 °F 76% 30.25 in 10.0 mi Calm Calm - N/A   Clear
1:53 AM 75.0 °F - 66.9 °F 76% 30.25 in 10.0 mi Calm Calm - N/A   Partly Cloudy
2:53 AM 75.9 °F - 66.9 °F 74% 30.25 in 10.0 mi Calm Calm - N/A   Clear
3:53 AM 73.9 °F - 66.9 °F 79% 30.25 in 10.0 mi Calm Calm - N/A   Clear
4:53 AM 73.0 °F - 66.9 °F 81% 30.26 in 10.0 mi SSW 3.5 mph - N/A   Clear
5:53 AM 72.0 °F - 66.9 °F 84% 30.27 in 10.0 mi SE 3.5 mph - N/A   Clear
6:53 AM 73.0 °F - 66.9 °F 81% 30.28 in 10.0 mi Calm Calm - N/A   Clear
7:53 AM 75.9 °F - 68.0 °F 76% 30.29 in 10.0 mi Calm Calm - N/A   Clear
8:53 AM 81.0 °F 84.1 °F 69.1 °F 67% 30.30 in 10.0 mi Calm Calm - N/A   Clear
9:53 AM 84.9 °F 88.2 °F 68.0 °F 57% 30.30 in 10.0 mi ENE 3.5 mph - N/A   Clear
10:53 AM 87.1 °F 90.6 °F 68.0 °F 53% 30.30 in 10.0 mi Calm Calm - N/A   Clear
11:53 AM 89.1 °F 92.9 °F 68.0 °F 50% 30.29 in 10.0 mi Variable 5.8 mph - N/A   Clear
12:53 PM 91.0 °F 95.2 °F 68.0 °F 47% 30.28 in 10.0 mi South 5.8 mph - N/A   Partly Cloudy
1:53 PM 91.0 °F 94.3 °F 66.9 °F 45% 30.27 in 10.0 mi South 4.6 mph - N/A   Partly Cloudy
2:53 PM 91.0 °F 94.3 °F 66.9 °F 45% 30.24 in 10.0 mi Calm Calm - N/A   Scattered Clouds
3:53 PM 93.9 °F 95.6 °F 64.0 °F 37% 30.22 in 10.0 mi SSE 10.4 mph - N/A   Partly Cloudy
4:53 PM 93.9 °F 97.5 °F 66.9 °F 41% 30.19 in 10.0 mi ESE 11.5 mph - N/A   Partly Cloudy
5:53 PM 93.0 °F 94.2 °F 63.0 °F 37% 30.18 in 10.0 mi South 6.9 mph - N/A   Partly Cloudy
6:53 PM 93.9 °F 95.6 °F 64.0 °F 37% 30.17 in 10.0 mi SSE 12.7 mph - N/A   Clear
7:53 PM 90.0 °F 92.4 °F 66.0 °F 45% 30.17 in 10.0 mi SE 10.4 mph - N/A   Clear
8:53 PM 86.0 °F 88.2 °F 66.0 °F 51% 30.17 in 10.0 mi SE 5.8 mph - N/A   Clear
9:53 PM 84.9 °F 87.1 °F 66.0 °F 53% 30.17 in 10.0 mi SSE 4.6 mph - N/A   Clear
10:53 PM 79.0 °F - 66.9 °F 66% 30.18 in 10.0 mi Calm Calm - N/A   Clear
11:53 PM 78.1 °F - 68.0 °F 71% 30.17 in 10.0 mi Calm Calm - N/A   Clear